CW9648 Weather Reports


time (UTC)temp
F
wind
direction
speed
knots
gust
knots
rain 1hr
in
rain 24hr
in
rain mn
in
humidity
%
barometer
mb
20260504014004 64 0 0.0 0.0 0.00 0.01 0.01 81 1018.3
20260504013525 65 0 0.0 0.0 0.00 0.01 0.01 80 1018.3
20260504013004 66 0 0.0 0.0 0.00 0.01 0.01 79 1018.3
20260504012504 66 0 0.0 0.0 0.00 0.01 0.01 76 1018.1
20260504012004 66 0 0.0 0.0 0.00 0.01 0.01 77 1018.1
20260504011504 67 0 0.0 0.0 0.00 0.01 0.01 78 1018.1
20260504011004 68 0 0.0 0.0 0.00 0.01 0.01 77 1018.1
20260504010525 68 0 0.0 0.0 0.00 0.01 0.01 76 1018.1
20260504010004 69 0 0.0 0.0 0.00 0.01 0.01 73 1018.1
20260504005504 69 0 0.0 0.0 0.00 0.01 0.01 72 1018.2
20260504005004 70 0 0.0 0.0 0.00 0.01 0.01 70 1018.2
20260504004525 70 0 0.0 0.0 0.00 0.01 0.01 74 1018.3
20260504004004 71 0 0.0 0.0 0.00 0.01 0.01 73 1018.1
20260504003504 72 0 0.0 0.0 0.00 0.01 0.01 70 1018.1
20260504003004 72 0 0.0 0.0 0.00 0.01 0.01 69 1018.1
20260504002525 73 0 0.0 0.0 0.00 0.01 0.01 66 1018.1
20260504002004 73 0 0.0 0.0 0.00 0.01 0.01 63 1018.2
20260504001504 74 180 0.0 0.9 0.00 0.01 0.01 61 1018.1
20260504000504 75 0 0.0 0.0 0.00 0.01 0.01 54 1018.2
20260504000004 75 0 0.0 0.0 0.00 0.01 0.01 54 1018.2
20260503235504 76 180 0.0 0.9 0.00 0.01 0.01 51 1018.2
20260503235004 76 177 0.0 2.6 0.00 0.01 0.01 50 1018.4
20260503234504 77 167 0.9 4.3 0.00 0.01 0.01 47 1018.4
20260503234004 77 169 0.9 4.3 0.00 0.01 0.01 47 1018.4
20260503233504 78 170 0.9 3.5 0.00 0.01 0.01 46 1018.4
20260503232504 78 167 1.7 3.5 0.00 0.01 0.01 46 1018.4
20260503232004 78 162 1.7 3.5 0.00 0.01 0.01 45 1018.4
20260503231504 79 162 1.7 3.5 0.00 0.01 0.01 45 1018.5
20260503231004 79 169 0.9 3.5 0.00 0.01 0.01 45 1018.6
20260503230504 80 176 0.9 4.3 0.00 0.01 0.01 46 1018.5
20260503230004 80 161 1.7 4.3 0.00 0.01 0.01 45 1018.5
20260503225503 80 156 1.7 4.3 0.00 0.01 0.01 42 1018.5
20260503225004 80 159 1.7 5.2 0.00 0.01 0.01 44 1018.5
20260503224504 81 176 1.7 5.2 0.00 0.01 0.01 42 1018.5
20260503224003 82 234 0.9 2.6 0.00 0.01 0.01 41 1018.6
20260503223504 82 223 0.9 2.6 0.00 0.01 0.01 41 1018.6
20260503223004 82 225 0.9 2.6 0.00 0.01 0.01 42 1018.6
20260503222504 82 228 0.9 3.5 0.00 0.01 0.01 41 1018.7
20260503222004 81 224 0.9 3.5 0.00 0.01 0.01 39 1018.8
20260503221504 81 4 0.9 2.6 0.00 0.01 0.01 40 1018.9
20260503221004 80 323 1.7 4.3 0.00 0.01 0.01 38 1018.9
20260503220504 81 284 1.7 4.3 0.00 0.01 0.01 37 1018.8
20260503220004 81 168 0.9 2.6 0.00 0.01 0.01 39 1018.9
20260503215504 81 237 1.7 3.5 0.00 0.01 0.01 40 1018.9
20260503215004 81 270 1.7 3.5 0.00 0.01 0.01 40 1019.0
20260503214504 82 239 0.9 3.5 0.00 0.01 0.01 38 1019.1
20260503214004 81 192 1.7 7.0 0.00 0.01 0.01 35 1019.1
20260503213503 82 177 1.7 7.0 0.00 0.01 0.01 35 1019.2
20260503213004 82 228 1.7 4.3 0.00 0.01 0.01 37 1019.2
20260503212504 82 261 0.9 3.5 0.00 0.01 0.01 38 1019.3
20260503212025 82 203 0.9 3.5 0.00 0.01 0.01 38 1019.4
20260503211504 81 179 1.7 3.5 0.00 0.01 0.01 39 1019.5
20260503211004 80 170 1.7 6.1 0.00 0.01 0.01 41 1019.7
20260503210503 81 162 2.6 6.1 0.00 0.01 0.01 43 1019.8
20260503210004 81 166 2.6 6.1 0.00 0.01 0.01 40 1019.9
20260503205504 81 178 1.7 7.0 0.00 0.01 0.01 41 1020.0
20260503205024 81 283 1.7 7.0 0.00 0.01 0.01 39 1020.1
20260503204503 81 213 1.7 6.1 0.00 0.01 0.01 40 1020.2
20260503204025 81 224 1.7 4.3 0.00 0.01 0.01 39 1020.3
20260503203504 81 220 1.7 4.3 0.00 0.01 0.01 40 1020.4
20260503203004 81 233 1.7 4.3 0.00 0.01 0.01 41 1020.5
20260503202503 81 315 2.6 7.8 0.00 0.01 0.01 46 1020.5
20260503202004 80 311 2.6 7.8 0.00 0.01 0.01 44 1020.6
20260503201504 80 255 1.7 7.8 0.00 0.01 0.01 42 1020.7
20260503201003 80 187 1.7 5.2 0.00 0.01 0.01 44 1020.8
20260503200504 80 200 1.7 5.2 0.00 0.01 0.01 44 1020.8
20260503200004 80 184 1.7 4.3 0.00 0.01 0.01 46 1020.9
20260503195504 80 98 2.6 4.3 0.00 0.01 0.01 47 1020.9
20260503195025 79 338 2.6 5.2 0.00 0.01 0.01 49 1021.0
20260503194503 78 3 1.7 6.1 0.00 0.01 0.01 48 1021.1
20260503194004 77 69 2.6 6.1 0.00 0.01 0.01 46 1021.2
20260503193503 78 291 1.7 6.1 0.00 0.01 0.01 46 1021.4
20260503193004 78 179 1.7 7.8 0.00 0.01 0.01 47 1021.3
20260503192504 79 270 1.7 7.8 0.00 0.01 0.01 45 1021.4
20260503192004 78 269 2.6 7.8 0.00 0.01 0.01 44 1021.6
20260503191504 79 226 1.7 5.2 0.00 0.01 0.01 44 1021.7
20260503191004 79 151 2.6 7.0 0.00 0.01 0.01 48 1021.7
20260503190525 78 158 2.6 7.0 0.00 0.01 0.01 48 1021.8
20260503190004 78 189 2.6 7.0 0.00 0.01 0.01 45 1021.9
20260503185503 79 149 2.6 6.1 0.00 0.01 0.01 46 1021.9
20260503185004 78 153 2.6 6.1 0.00 0.01 0.01 45 1022.0
20260503184504 79 205 1.7 5.2 0.00 0.01 0.01 44 1022.1
20260503184004 78 228 1.7 4.3 0.00 0.01 0.01 48 1022.0
20260503183504 78 251 1.7 4.3 0.00 0.01 0.01 47 1022.2
20260503183004 78 237 1.7 4.3 0.00 0.01 0.01 45 1022.3
20260503182524 78 180 1.7 4.3 0.00 0.01 0.01 46 1022.4
20260503182005 78 155 1.7 5.2 0.00 0.01 0.01 45 1022.4
20260503181505 78 153 2.6 6.1 0.00 0.01 0.01 46 1022.6
20260503181004 78 175 2.6 6.1 0.00 0.01 0.01 48 1022.7
20260503180503 77 243 2.6 5.2 0.00 0.01 0.01 47 1022.7
20260503180004 77 302 2.6 7.0 0.00 0.01 0.01 47 1022.7
20260503175503 77 302 2.6 7.0 0.00 0.01 0.01 43 1022.8
20260503175003 77 256 1.7 4.3 0.00 0.01 0.01 43 1022.9
20260503174503 77 204 1.7 3.5 0.00 0.01 0.01 48 1022.9
20260503174025 77 183 1.7 7.0 0.00 0.01 0.01 45 1022.9
20260503173503 76 203 1.7 7.0 0.00 0.01 0.01 47 1023.1
20260503173003 77 185 1.7 6.1 0.00 0.01 0.01 52 1023.1
20260503172504 77 207 1.7 5.2 0.00 0.01 0.01 49 1023.1
20260503172004 76 258 1.7 5.2 0.00 0.01 0.01 50 1023.2
20260503171504 76 256 1.7 6.1 0.00 0.01 0.01 53 1023.3
20260503171003 76 179 2.6 6.1 0.00 0.01 0.01 52 1023.4
20260503170503 76 186 2.6 7.0 0.00 0.01 0.01 53 1023.6
20260503151003 68 273 1.7 3.5 0.00 0.01 0.01 67 1023.8
20260503150503 68 187 1.7 5.2 0.00 0.01 0.01 67 1023.7
20260503131003 52 0 0.0 0.0 0.00 0.01 0.01 90 1023.4
20260503130503 52 0 0.0 0.0 0.00 0.01 0.01 90 1023.4
20260503110503 49 0 0.0 0.0 0.00 0.00 0.00 91 1022.3
20260503081503 51 0 0.0 0.0 0.00 0.01 0.00 92 1021.7
20260503081003 51 0 0.0 0.0 0.00 0.01 0.00 92 1021.6
20260503080503 51 0 0.0 0.0 0.00 0.01 0.00 92 1021.7
20260503072503 51 0 0.0 0.0 0.00 0.01 0.00 93 1021.5
20260503072003 51 0 0.0 0.0 0.00 0.01 0.00 93 1021.7
20260503071503 51 0 0.0 0.0 0.00 0.01 0.00 93 1021.7
20260503071003 51 0 0.0 0.0 0.00 0.01 0.00 93 1021.6
20260503070503 51 0 0.0 0.0 0.00 0.01 0.00 92 1021.7
20260503055024 53 0 0.0 0.0 0.00 0.01 0.00 93 1021.6
20260503054503 53 0 0.0 0.0 0.00 0.01 0.00 93 1021.6
20260503054003 53 0 0.0 0.0 0.00 0.01 0.00 93 1021.6
20260503053503 53 0 0.0 0.0 0.00 0.01 0.00 93 1021.6
20260503053024 53 0 0.0 0.0 0.00 0.01 0.00 93 1021.5
20260503052503 53 0 0.0 0.0 0.00 0.01 0.00 93 1021.6
20260503052024 53 0 0.0 0.0 0.00 0.01 0.00 93 1021.5
20260503051503 53 0 0.0 0.0 0.00 0.01 0.00 93 1021.5
20260503051003 53 0 0.0 0.0 0.00 0.01 0.00 93 1021.5
20260503044505 54 0 0.0 0.0 0.00 0.01 0.01 93 1021.7
20260503044028 54 0 0.0 0.0 0.00 0.01 0.01 93 1021.6
20260503043504 54 0 0.0 0.0 0.00 0.01 0.01 93 1021.5
20260503043004 54 0 0.0 0.0 0.00 0.01 0.01 93 1021.5
20260503042504 54 0 0.0 0.0 0.00 0.01 0.01 93 1021.6
20260503042004 54 0 0.0 0.0 0.00 0.01 0.01 93 1021.5
20260503041504 54 0 0.0 0.0 0.00 0.01 0.01 93 1021.5
20260503041004 54 0 0.0 0.0 0.00 0.01 0.01 93 1021.5
20260503040504 54 0 0.0 0.0 0.00 0.01 0.01 93 1021.5
20260503040004 54 0 0.0 0.0 0.00 0.01 0.01 93 1021.5
20260503035504 55 0 0.0 0.0 0.00 0.01 0.01 93 1021.6
20260503035004 55 0 0.0 0.0 0.00 0.01 0.01 93 1021.7
20260503034504 55 0 0.0 0.0 0.00 0.01 0.01 93 1021.7
20260503034004 55 0 0.0 0.0 0.00 0.01 0.01 93 1021.5
20260503033525 55 0 0.0 0.0 0.00 0.01 0.01 93 1021.5
20260503033004 55 0 0.0 0.0 0.00 0.01 0.01 92 1021.5
20260503032504 55 0 0.0 0.0 0.00 0.01 0.01 92 1021.4
20260503032004 56 0 0.0 0.0 0.00 0.01 0.01 92 1021.5
20260503031504 56 0 0.0 0.0 0.00 0.01 0.01 92 1021.3
20260503031004 56 0 0.0 0.0 0.00 0.01 0.01 92 1021.3
20260503030525 56 0 0.0 0.0 0.00 0.01 0.01 92 1021.4
20260503030004 56 0 0.0 0.0 0.00 0.01 0.01 91 1021.4
20260503025504 56 0 0.0 0.0 0.00 0.01 0.01 91 1021.3
20260503025004 56 0 0.0 0.0 0.00 0.01 0.01 91 1021.3
20260503024504 57 0 0.0 0.0 0.00 0.01 0.01 91 1021.3
20260503024004 57 0 0.0 0.0 0.00 0.01 0.01 90 1021.1
20260503023525 57 0 0.0 0.0 0.00 0.01 0.01 90 1021.0
20260503023004 57 0 0.0 0.0 0.00 0.01 0.01 90 1021.1
20260503022504 57 0 0.0 0.0 0.00 0.01 0.01 89 1021.0
20260503022004 58 0 0.0 0.0 0.00 0.01 0.01 89 1020.9
20260503021504 58 0 0.0 0.0 0.00 0.01 0.01 88 1020.9
20260503021004 58 0 0.0 0.0 0.00 0.01 0.01 88 1020.9
20260503020504 59 0 0.0 0.0 0.00 0.01 0.01 87 1020.8
20260503020004 59 0 0.0 0.0 0.00 0.01 0.01 87 1020.7
20260503015504 59 0 0.0 0.0 0.00 0.02 0.01 86 1020.7
20260503015004 59 0 0.0 0.0 0.00 0.02 0.01 86 1020.6
20260503014525 59 0 0.0 0.0 0.00 0.03 0.01 85 1020.6